Simultaneous Nadir Overpasses (SNOs) Predictions

Prediction of SNOs between AQUA and NPP Satellite Orbit:

Table of predicted SNOs for the next 14.0 days since TLE Epoch: 12/21/2012
Index Date (AQUA) Time (AQUA) Lat,Lon (AQUA) SZA (AQUA ) Date (NPP) Time (NPP) Lat,Lon (NPP) SZA (NPP ) Distance(km) Time Diff (sec)
1 12/23/2012 07:11:10 76.47, -47.31 119.47 12/23/2012 07:10:05 76.48, -47.29 119.53 0.32 65
2 12/23/2012 08:00:22 -77.20, 122.96 61.35 12/23/2012 08:00:34 -77.20, 122.91 61.35 1.36 12
3 12/25/2012 23:27:37 76.71, 69.36 119.22 12/25/2012 23:26:54 76.70, 69.35 119.26 0.28 43
4 12/26/2012 00:16:50 -77.39,-120.45 61.56 12/26/2012 00:17:24 -77.38,-120.53 61.57 2.02 34
5 12/28/2012 15:44:01 77.09,-173.38 118.74 12/28/2012 15:43:39 77.10,-173.28 118.74 2.40 22
6 12/28/2012 16:33:16 -77.67, -3.42 61.94 12/28/2012 16:34:11 -77.67, -3.40 61.99 0.64 55
7 12/31/2012 07:14:28 -66.47, 114.47 50.82 12/31/2012 07:13:15 -66.65, 113.20 50.44 59.65 73
8 12/31/2012 08:00:28 77.29, -56.72 118.40 12/31/2012 08:00:27 77.30, -56.63 118.38 2.26 1
9 12/31/2012 08:48:20 -80.90, 135.53 66.76 12/31/2012 08:49:34 -80.63, 136.24 66.93 33.05 74
10 01/02/2013 23:27:49 -76.65,-110.88 61.03 01/02/2013 23:26:51 -76.66,-110.81 61.00 2.04 58




NCC Satellite Simultaneous Nadir Overpasses (SNOs) Prediction Service
